Wind_Speed
9 8 8 7 6 6 7 8 8 8 8 8 7 7 8 8 8 7 6 4 5 4 4 3 2 1 1 2 2 3 3 3 4 4 5 6 6 7 7 8 8 8 9 9 9 9 10 10 11 12 13 14 15 15 15 15 15 15 14 14 13 13 14 14 15 16 16 16 17 18 19 19 19 19 19 19 19 19 18 18 17 16 15 15 15
8 8 8 8 7 6 7 8 8 9 8 8 7 7 8 8 8 8 6 5 5 4 3 2 1 1 1 2 3 3 4 5 5 6 6 7 8 8 9 10 10 10 11 11 11 12 12 12 13 13 14 15 16 16 16 17 17 17 16 15 14 14 14 14 15 16 17 18 18 18 19 20 20 20 20 20 20 20 19 18 18 18 17 16 16
7 7 7 7 8 7 7 7 7 8 8 7 8 8 8 8 8 8 7 5 5 4 3 3 3 3 4 4 5 5 6 7 7 8 8 9 9 10 11 11 12 13 13 13 14 14 14 14 15 15 16 17 17 17 18 18 18 18 17 16 15 14 14 15 15 16 17 18 19 20 19 20 20 20 20 21 21 20 19 19 18 18 18 18 18
6 6 6 6 6 7 7 7 6 6 5 6 7 8 8 8 7 7 7 6 5 4 4 4 5 5 6 6 7 8 8 9 9 10 11 11 12 12 13 14 14 14 15 15 16 16 16 16 17 17 18 18 18 19 19 19 19 18 17 17 16 15 15 15 16 16 17 18 20 22 22 21 21 20 20 20 20 20 20 20 19 19 19 20 20
6 6 5 5 5 6 6 6 6 6 5 5 6 8 8 8 7 7 6 6 5 5 6 6 7 8 8 8 9 10 10 11 12 13 13 14 14 15 16 16 16 16 16 17 17 17 17 18 18 19 19 19 19 19 19 19 19 18 17 17 16 16 15 16 16 16 18 19 21 23 24 23 22 21 21 20 20 20 20 20 20 19 20 20 21
7 6 6 6 5 5 6 6 6 6 6 5 5 6 7 8 8 7 7 6 6 7 8 9 9 10 10 11 11 12 13 14 15 15 16 16 17 17 18 18 18 18 18 18 18 18 18 19 19 20 20 20 20 19 19 19 18 18 17 17 16 15 15 16 17 17 18 20 22 23 24 24 23 23 22 21 21 21 21 21 20 20 20 21 21
8 7 6 6 6 7 7 7 7 7 7 7 6 6 7 8 8 8 8 8 8 9 10 11 11 12 12 13 14 15 16 17 17 18 19 19 19 20 21 21 20 20 20 19 19 19 19 19 20 21 21 21 20 20 19 18 18 17 17 16 16 15 16 16 17 18 20 21 22 24 24 24 23 23 23 23 22 21 21 22 22 22 22 22 22
8 8 8 7 8 8 9 9 9 8 8 9 9 8 8 9 9 9 10 10 11 12 12 13 13 14 14 15 17 18 19 20 20 21 21 22 22 23 23 23 22 21 20 19 19 19 20 20 21 21 21 21 20 20 19 18 17 17 17 16 16 16 16 17 17 19 20 22 23 24 25 24 23 22 23 23 23 23 23 23 23 23 24 23 23
8 9 10 10 10 10 11 11 11 10 11 11 10 10 11 11 11 12 12 13 13 14 14 14 15 15 16 17 19 20 21 22 23 23 23 23 23 23 23 23 21 20 20 20 20 20 20 21 21 21 21 20 20 19 19 17 17 16 16 16 16 16 17 17 18 20 21 23 24 25 25 24 23 22 22 22 23 24 25 25 25 24 24 24 24
8 10 11 12 13 13 13 12 12 13 13 13 12 13 13 14 14 14 15 15 15 15 15 16 16 16 18 19 20 22 23 23 23 23 23 23 22 22 22 22 21 20 20 20 20 21 21 21 21 21 20 20 19 19 18 17 16 16 16 16 16 17 17 18 20 21 22 23 25 26 25 24 23 22 22 22 22 24 25 26 26 26 25 24 24
8 9 10 12 14 15 15 15 16 17 16 15 15 15 15 15 15 16 16 16 16 16 16 16 17 17 19 20 21 22 22 21 21 21 21 20 19 19 20 20 20 20 20 20 21 21 21 21 21 21 19 19 18 18 18 17 17 17 17 17 17 18 18 19 21 22 23 24 26 27 25 24 23 22 22 22 22 24 25 25 26 26 27 26 25
7 9 10 12 13 14 16 17 18 18 18 18 17 16 15 15 14 15 15 16 17 17 17 17 17 18 19 20 20 20 20 19 19 20 19 18 18 18 19 20 20 20 21 21 21 21 21 21 21 20 19 18 18 18 18 18 18 17 17 18 18 19 19 20 21 22 24 25 27 28 27 25 24 23 23 23 23 24 25 25 25 26 27 27 27
6 8 10 11 12 12 14 16 16 17 18 18 17 17 15 14 14 15 16 17 18 18 18 18 17 18 18 19 19 19 19 20 20 19 18 17 17 18 19 21 21 22 22 22 22 22 22 22 22 20 19 18 18 18 18 18 18 18 18 19 19 19 20 21 22 23 25 26 27 28 28 27 26 25 25 24 25 25 25 25 26 27 28 28 27
5 6 9 11 11 12 12 13 13 15 16 17 16 16 16 16 16 16 18 19 19 19 19 18 17 18 18 19 19 19 20 20 20 19 18 18 18 19 20 21 23 24 24 24 24 23 23 23 22 21 20 19 19 19 19 19 19 19 19 19 20 20 21 22 23 24 25 27 28 29 29 28 28 27 27 27 27 26 26 25 26 27 28 28 28
7 8 8 9 10 10 11 11 12 13 15 16 16 17 17 17 18 18 19 19 20 20 19 18 18 18 19 19 20 20 20 20 20 20 19 19 19 19 21 22 24 26 26 25 25 25 24 24 23 22 21 20 20 20 20 19 19 20 20 20 21 22 22 23 24 25 26 28 29 29 30 30 30 30 30 29 29 28 27 27 27 28 28 28 27
10 11 10 9 9 8 7 8 10 12 13 14 16 17 17 18 19 19 19 19 19 19 18 19 19 19 20 20 20 20 20 21 21 20 20 21 22 22 22 24 25 27 27 26 26 26 25 24 23 23 22 21 21 21 20 20 20 21 21 21 22 22 23 23 24 26 27 29 31 31 32 31 32 32 32 32 30 29 28 29 29 29 28 27 27
12 12 12 11 10 8 7 8 10 12 13 14 15 16 17 18 18 18 18 18 18 18 19 20 20 20 21 21 21 21 22 22 21 21 21 22 23 23 24 25 26 27 27 26 26 26 26 25 23 23 22 21 21 21 20 20 21 22 22 22 23 24 24 24 25 26 28 30 32 32 32 31 31 32 33 33 32 30 30 30 30 30 29 28 25
15 14 14 13 12 11 10 10 12 13 14 15 15 15 16 16 17 17 17 17 18 19 19 19 20 20 21 22 22 22 22 23 23 23 23 23 25 25 26 27 27 27 27 26 26 27 27 26 24 23 23 22 21 22 21 21 21 22 23 23 24 25 25 25 25 27 28 29 30 30 29 29 31 32 33 33 32 31 31 31 31 31 31 30 27
16 16 16 14 12 12 11 11 13 14 14 15 15 14 13 13 14 15 15 16 17 17 17 18 19 19 20 21 21 22 23 24 24 24 24 25 27 27 27 28 28 27 26 26 27 28 28 27 25 24 23 22 22 23 23 22 23 24 24 24 25 25 25 24 25 27 29 30 30 30 30 30 31 32 32 31 30 31 32 32 32 32 32 31 29
15 16 15 14 12 13 13 14 15 15 14 15 14 13 12 12 12 13 14 15 15 14 15 16 17 18 20 21 22 23 23 24 25 26 26 27 28 28 29 29 29 28 26 25 27 28 29 29 27 25 24 22 23 24 24 23 23 25 25 25 25 25 24 24 25 28 30 31 31 30 30 29 30 31 31 31 31 31 32 33 33 33 33 32 31
15 16 15 14 15 15 15 17 17 17 15 14 13 13 12 12 12 13 13 13 13 13 13 14 15 17 19 20 22 22 22 23 25 26 27 28 29 29 29 30 30 29 26 25 27 27 29 30 28 26 24 23 24 24 24 24 24 25 26 26 26 25 24 24 25 28 30 30 29 28 27 28 30 33 34 35 35 34 33 33 33 34 34 34 33
16 17 16 17 18 18 18 19 19 18 17 15 13 12 11 11 12 12 11 11 12 12 12 14 15 17 19 21 21 20 21 23 24 25 27 29 30 30 30 30 30 30 28 26 27 27 29 31 29 27 25 25 25 25 25 25 25 26 26 26 26 25 24 24 25 28 28 28 27 28 29 30 33 36 38 39 38 36 34 33 34 35 35 35 35
18 20 19 20 20 20 20 21 21 19 17 15 13 12 11 11 11 11 10 11 12 12 13 15 17 19 22 24 24 23 23 24 25 26 27 29 31 31 32 31 31 32 30 27 27 27 30 31 30 28 27 26 27 26 26 26 26 27 27 27 26 26 25 25 25 26 27 28 28 29 31 32 34 36 37 37 37 36 34 34 35 36 36 36 37
21 22 22 22 22 21 22 22 22 21 18 16 14 12 11 11 10 10 11 13 13 14 15 17 20 22 24 28 31 29 26 27 28 27 28 32 33 32 32 33 33 33 31 29 28 28 30 31 30 28 28 29 29 27 27 27 28 28 28 28 28 27 26 27 27 28 29 30 31 32 34 34 35 35 34 35 35 34 34 34 35 36 36 37 38
21 20 21 22 21 22 23 23 23 21 18 16 14 12 11 12 12 12 13 14 15 16 18 20 23 25 27 32 35 34 32 32 33 31 31 34 36 34 33 33 33 33 33 33 32 31 31 30 29 28 30 30 29 27 28 28 29 30 30 30 29 29 29 29 30 31 31 33 34 35 37 37 37 36 34 34 34 34 34 34 35 35 36 38 39
22 21 21 21 22 23 23 23 22 18 15 14 13 13 13 13 14 15 15 16 17 18 20 22 25 28 30 32 33 33 34 34 35 38 38 38 37 38 39 38 35 33 34 35 35 34 32 30 29 29 30 29 27 27 29 29 29 30 31 31 31 31 31 31 32 33 33 34 36 38 39 39 38 37 35 34 34 34 34 34 35 36 37 38 40
24 23 22 22 23 24 23 22 20 17 15 14 14 14 15 15 16 16 16 17 18 20 22 24 28 29 29 28 29 30 32 33 34 37 39 39 41 42 42 39 37 37 37 37 35 34 32 31 30 30 29 28 28 29 30 30 30 31 32 32 32 32 32 33 33 34 34 35 38 40 40 41 40 38 37 35 35 35 34 34 35 37 38 39 41
23 22 22 23 24 24 22 21 19 18 17 16 15 16 17 17 17 17 17 18 19 22 24 26 28 28 27 28 30 34 36 34 33 33 33 36 41 43 42 40 39 40 41 39 37 35 33 32 31 31 29 29 30 31 31 31 31 32 32 32 33 33 34 34 34 33 34 36 38 40 41 41 41 40 37 35 34 34 35 35 36 38 39 39 41
21 20 21 23 23 22 20 19 19 19 18 16 17 17 18 18 18 17 18 19 21 23 25 26 27 26 27 30 34 38 42 40 37 34 34 36 37 38 39 40 41 42 41 39 39 38 35 33 32 30 30 31 32 33 33 32 31 32 32 33 34 35 34 34 33 33 34 37 40 41 42 43 42 41 38 36 34 34 36 37 39 41 41 41 41
20 18 18 19 20 20 20 19 17 18 17 16 15 16 18 19 19 19 20 21 22 23 23 24 24 26 30 34 35 39 43 42 39 36 36 38 38 36 35 36 38 40 40 40 41 39 35 33 31 30 31 33 34 35 35 34 32 32 33 34 35 35 35 33 32 33 36 38 40 42 43 44 43 42 41 39 37 36 37 39 40 42 43 43 43
20 17 16 18 20 21 20 19 18 19 18 16 15 15 16 19 20 21 22 22 23 22 22 23 25 28 33 35 36 38 41 39 36 34 33 34 33 33 34 35 36 37 37 39 40 37 33 32 30 30 32 34 35 36 37 35 33 33 33 34 35 36 35 33 32 35 38 39 41 44 44 44 43 43 44 43 40 38 38 39 42 43 44 44 43
19 18 18 20 22 22 22 20 20 22 22 21 19 17 18 19 20 22 23 24 25 24 25 26 30 32 35 37 38 39 41 40 39 36 32 30 31 33 35 36 37 36 36 37 37 35 33 33 34 34 34 34 35 37 38 36 35 34 34 35 35 35 34 33 34 37 39 41 44 45 45 45 44 45 46 43 40 38 37 39 41 43 43 43 41
22 22 22 23 24 23 23 23 23 24 25 25 24 23 22 23 23 24 25 26 27 28 29 31 33 35 36 39 41 41 42 44 44 38 31 29 30 33 35 36 36 35 34 34 35 35 35 35 35 35 34 34 36 38 38 37 36 35 35 35 35 35 34 34 36 39 41 43 45 47 47 45 44 46 46 42 39 37 37 38 40 41 40 40 39
26 27 26 26 26 25 26 27 27 27 27 28 27 26 27 27 26 27 28 29 30 31 32 33 34 36 38 41 42 43 44 45 43 38 34 33 34 34 35 35 34 33 33 33 33 32 30 28 29 30 32 35 37 38 39 39 37 36 36 37 36 36 35 36 38 40 42 45 48 49 46 43 45 47 45 41 38 37 39 41 42 41 41 42 43
29 29 29 29 29 28 29 30 30 31 31 30 29 29 30 29 29 30 31 32 33 34 35 36 37 39 41 42 43 44 47 46 42 40 39 39 39 36 33 32 33 33 33 31 28 25 23 24 25 27 31 34 37 38 39 39 38 36 36 37 37 37 37 37 39 41 45 48 49 47 43 43 47 46 42 41 41 42 45 46 46 44 44 45 46
29 29 30 31 31 31 32 33 34 34 33 30 30 32 32 31 32 33 34 35 36 37 38 39 41 42 43 45 45 46 48 47 44 41 39 37 36 33 31 31 33 33 32 29 26 24 24 24 25 26 29 33 36 37 38 39 38 37 36 36 37 38 38 39 41 44 47 49 48 46 44 45 46 42 39 43 45 45 47 48 47 45 45 47 48
31 31 32 34 34 35 37 38 38 36 33 31 33 34 34 33 34 36 37 39 39 40 41 42 45 46 47 47 47 48 50 48 43 41 39 35 32 32 32 32 33 33 31 28 27 26 26 25 24 24 25 28 32 35 37 39 39 37 36 37 38 39 40 42 44 47 49 49 48 48 46 43 42 42 44 48 48 44 44 46 46 46 47 48 49
35 36 37 37 38 39 41 41 39 35 34 34 35 36 35 35 36 38 40 41 42 42 43 45 47 48 48 49 49 50 51 49 44 42 39 34 32 34 34 33 34 33 29 27 28 29 27 26 25 24 25 27 31 34 37 39 39 37 36 37 39 40 41 44 46 49 51 50 49 49 46 42 44 47 48 49 49 45 42 44 45 46 46 46 45
41 41 41 41 41 42 42 40 38 36 37 37 37 36 36 37 39 40 43 45 44 44 46 48 49 49 49 49 49 50 51 50 45 41 37 35 35 36 34 32 33 32 28 26 27 27 27 27 26 26 27 30 34 36 38 38 37 36 36 37 39 41 42 46 49 51 51 49 48 48 47 46 48 48 48 49 50 47 43 42 42 42 42 42 41
44 44 45 44 43 43 41 38 38 39 39 38 37 38 39 40 42 44 46 47 46 48 50 50 50 50 50 50 50 50 50 48 43 39 36 35 35 35 34 33 31 29 27 27 27 27 29 29 27 28 31 33 36 38 39 38 35 35 37 38 40 41 45 50 52 52 50 48 48 48 48 49 49 49 49 50 49 46 43 42 41 41 41 41 40
45 46 46 45 43 41 40 39 39 39 39 38 38 40 42 45 47 48 49 49 49 51 52 52 53 53 52 51 51 50 47 45 43 39 36 36 36 36 35 32 28 26 28 30 31 30 31 32 31 31 33 36 38 40 40 37 35 36 38 39 40 44 49 53 52 49 48 48 49 49 49 50 50 50 50 49 46 44 42 41 41 42 41 40 39
43 44 44 42 40 38 38 38 38 38 38 40 42 44 47 49 50 49 50 50 51 52 53 55 55 53 52 52 51 48 45 43 42 39 38 38 38 38 35 30 25 26 30 34 34 33 33 35 35 35 36 39 40 40 39 37 35 36 39 41 44 49 52 52 49 47 47 48 49 50 50 50 50 50 49 47 44 42 41 42 43 43 42 40 39
39 39 40 38 38 38 39 40 42 42 42 44 45 47 49 50 50 51 51 51 52 53 54 54 53 52 52 51 48 44 42 41 41 40 40 40 39 39 34 28 24 26 30 33 34 35 38 39 38 37 39 41 41 40 37 35 35 38 42 46 50 52 50 48 47 47 48 49 50 50 50 50 49 50 48 45 42 41 42 44 44 43 41 40 40
36 37 38 40 43 44 45 46 46 44 43 44 46 47 49 51 52 53 52 52 52 53 53 53 54 55 52 47 43 42 41 40 40 40 41 42 41 37 32 28 26 27 29 32 36 41 44 42 39 40 42 42 42 39 35 34 37 43 48 51 51 49 47 47 48 48 49 50 50 50 50 49 49 49 47 44 41 42 44 45 44 42 40 39 40
38 38 39 41 44 45 46 45 43 42 42 44 45 47 50 53 54 53 52 52 52 54 55 55 54 51 45 40 39 40 40 40 40 41 42 42 38 33 32 32 32 29 29 34 40 43 43 41 42 44 45 43 40 37 34 38 45 49 51 50 48 46 46 47 47 48 49 50 50 49 49 48 49 48 45 42 41 43 45 45 43 41 40 40 40
39 38 38 39 41 42 43 43 43 43 42 43 45 46 50 54 54 52 52 51 51 52 52 49 43 39 37 37 38 40 41 41 40 40 41 38 34 33 35 35 34 33 35 38 41 42 42 43 46 45 42 38 36 36 39 45 49 49 49 48 45 44 45 45 47 49 50 50 50 49 48 48 48 45 42 40 41 43 45 44 42 41 40 39 38
37 37 37 38 39 41 42 42 42 42 41 42 44 47 51 53 52 51 51 52 50 48 43 37 34 35 36 38 39 40 41 40 39 39 39 38 36 37 38 37 38 40 41 39 39 42 44 44 43 39 35 35 38 42 46 48 47 47 47 44 41 41 43 46 48 50 51 51 49 48 47 47 45 42 40 40 42 43 43 42 40 40 39 38 37
38 38 37 37 38 40 39 38 39 39 39 40 43 46 48 51 51 52 53 52 47 42 38 35 35 36 38 39 40 41 40 39 38 38 37 37 39 40 40 40 41 41 38 36 38 42 42 39 36 35 36 40 45 47 47 46 46 45 42 38 39 43 46 48 49 50 50 50 47 46 45 43 41 40 39 40 41 42 41 40 39 39 38 37 36
39 38 38 38 38 37 36 35 36 37 38 39 40 40 40 42 44 45 46 44 42 40 39 38 38 38 39 39 40 41 40 39 38 37 38 40 41 40 37 36 35 34 33 33 35 37 37 36 38 40 43 46 47 47 47 46 44 40 37 39 43 47 48 48 49 49 49 47 45 43 42 40 39 39 39 40 41 40 40 39 38 38 37 35 35
38 38 38 38 38 37 37 36 36 37 38 39 39 38 36 35 35 35 35 36 38 39 39 38 38 38 38 39 41 42 42 42 40 39 39 39 38 36 35 35 34 33 33 33 33 35 38 41 44 47 47 47 47 46 45 42 39 37 40 45 48 48 48 48 49 48 47 44 42 41 39 38 38 38 39 40 39 39 38 38 37 36 36 35 34
38 39 39 39 39 39 38 37 36 37 38 40 41 40 38 36 33 32 33 35 37 38 38 38 38 39 40 41 41 40 39 39 38 36 35 35 36 38 40 40 37 34 35 37 39 41 44 46 47 47 47 46 45 42 40 40 40 42 46 49 49 48 48 48 48 46 44 42 40 39 38 38 38 38 39 39 38 38 37 36 36 35 35 34 34
Wind_Direction
121 126 139 154 170 194 211 212 207 205 211 217 222 223 220 223 226 227 225 211 198 189 173 157 141 115 81 55 37 25 15 8 3 357 353 350 345 342 341 340 339 337 335 334 333 333 333 333 331 329 328 328 327 325 323 321 319 318 318 319 320 320 322 323 326 328 330 333 335 333 331 329 328 325 323 321 319 318 318 317 316 316 316 316 316
131 129 133 142 153 173 200 210 208 207 215 226 236 238 228 222 227 231 229 213 200 194 183 182 190 241 304 324 332 333 334 335 334 335 335 334 332 330 329 329 328 327 328 328 328 328 327 326 325 325 325 325 325 324 324 323 322 320 319 317 317 319 321 323 325 327 329 331 333 333 331 328 327 325 322 320 317 316 315 314 312 311 311 311 311
153 145 141 143 149 159 175 190 199 204 213 226 235 240 236 227 224 225 228 221 210 205 207 221 245 270 288 300 308 312 316 319 320 320 322 322 321 320 319 319 318 319 320 321 320 319 319 318 317 317 318 320 321 323 324 324 323 321 319 316 316 318 319 321 322 324 326 329 331 332 331 328 327 326 323 320 317 315 313 311 309 309 309 308 306
192 175 165 157 156 160 165 170 177 188 201 214 223 231 235 233 227 223 224 227 225 227 240 255 269 279 288 295 301 305 309 310 312 313 313 313 313 313 312 311 310 311 312 312 311 311 310 310 310 311 312 315 318 319 320 320 321 320 319 316 315 315 316 318 320 322 324 327 329 331 331 330 328 325 323 320 317 315 312 310 309 308 307 306 304
228 213 205 193 184 179 177 175 173 174 181 196 214 224 230 235 237 232 230 235 239 247 260 271 279 284 289 296 299 303 305 307 308 308 308 308 309 308 307 306 305 305 305 303 302 302 303 305 306 308 309 312 314 316 317 318 319 319 318 314 311 311 313 316 318 320 323 326 328 330 330 329 327 325 324 321 317 314 311 308 306 305 304 303 302
245 236 228 220 218 214 205 200 193 186 183 188 205 220 228 235 241 243 246 250 254 260 268 275 282 286 292 297 299 300 302 303 303 302 302 302 302 304 305 305 303 300 298 297 296 297 299 302 305 307 308 310 312 314 316 317 317 316 313 310 308 308 312 315 318 320 322 324 325 327 328 328 325 323 321 319 317 314 310 307 305 302 301 301 300
254 251 247 239 236 237 234 229 222 214 206 201 204 216 226 234 242 249 254 259 263 267 271 276 281 286 291 294 296 297 298 298 297 296 296 297 299 302 305 305 301 297 295 295 295 296 298 302 305 307 308 308 310 312 315 315 314 312 309 308 308 309 312 315 318 320 321 321 322 324 326 326 324 321 318 316 315 313 310 308 306 304 302 302 302
257 257 257 252 246 246 246 245 243 239 231 223 219 222 228 234 241 247 253 257 262 266 269 273 278 284 288 291 293 294 294 294 294 294 295 296 298 301 303 303 300 297 296 296 297 297 300 303 305 306 306 305 306 309 311 312 311 309 308 309 310 311 313 317 319 320 320 319 320 322 324 324 322 320 317 314 313 313 311 309 308 307 305 305 305
259 260 258 256 253 250 249 251 253 251 246 241 237 235 237 241 244 248 251 254 257 261 266 270 275 281 285 287 289 289 290 291 292 293 294 294 296 298 299 300 299 297 298 299 299 300 302 303 303 303 303 302 302 304 308 310 309 309 311 312 312 312 315 319 321 320 319 318 319 321 322 322 321 319 316 313 312 312 311 311 310 309 308 307 308
257 260 258 257 255 253 252 251 252 251 250 250 247 245 245 247 249 251 254 257 260 263 267 271 276 280 283 285 286 287 288 289 291 292 292 292 292 293 295 296 297 298 299 301 301 302 302 302 302 302 301 299 298 303 308 310 311 313 313 312 312 314 317 320 321 320 318 318 317 319 321 320 319 318 316 313 311 311 311 310 311 311 310 309 310
249 253 253 252 251 251 251 249 248 249 252 253 250 249 251 253 256 259 261 262 264 267 270 273 276 279 281 283 284 285 286 288 290 291 291 290 289 289 291 293 295 297 299 301 302 303 302 301 301 302 301 298 300 306 311 313 314 315 314 313 314 315 318 320 320 318 317 317 317 318 319 319 318 318 317 314 311 310 309 309 310 311 312 312 311
252 254 253 253 250 247 246 247 249 253 255 255 253 254 255 258 263 266 268 269 270 271 272 272 274 277 278 280 282 284 285 288 290 292 291 287 285 286 288 291 293 296 299 301 302 303 303 301 300 301 300 301 307 312 314 315 316 316 315 314 314 316 318 319 318 317 316 316 317 317 318 319 319 319 317 314 312 310 309 309 310 310 310 310 309
250 259 263 264 260 253 248 247 251 255 257 256 256 256 257 259 265 270 273 274 274 273 272 271 271 273 276 279 281 284 285 288 291 292 291 286 284 286 289 292 294 297 299 300 302 303 301 299 300 302 303 306 311 314 314 314 315 315 314 313 314 316 317 316 316 316 316 317 317 317 318 319 320 319 317 316 313 312 311 310 310 310 309 308 307
243 265 274 279 276 266 259 255 254 255 257 257 257 258 259 261 266 271 274 275 276 275 273 271 270 272 275 278 282 284 286 289 291 292 291 288 287 288 292 295 297 299 301 302 303 303 300 300 302 305 306 307 309 311 312 313 314 314 313 313 314 315 315 315 316 317 317 318 317 317 318 319 319 319 317 316 314 312 311 311 310 309 308 307 305
256 271 277 281 280 272 264 258 254 254 256 257 259 259 261 265 267 270 272 274 276 276 275 273 272 274 277 281 285 286 287 289 291 293 292 291 289 291 293 296 298 300 301 303 304 303 300 301 304 305 305 306 305 307 310 312 313 313 313 314 315 314 314 315 316 317 318 318 317 317 318 318 317 317 315 314 313 312 311 311 311 311 309 306 303
263 274 273 269 270 270 268 258 252 255 258 260 263 264 266 268 270 271 272 273 275 275 273 272 273 276 280 285 287 287 288 291 294 296 295 292 292 292 293 295 297 298 300 302 303 301 300 301 303 305 305 305 304 305 308 311 312 313 313 314 314 313 313 314 316 318 319 318 318 317 317 316 315 314 313 312 311 310 309 309 310 310 308 304 301
264 262 257 261 264 262 266 269 267 266 266 267 268 269 271 272 274 273 271 271 270 270 269 270 274 278 283 287 289 290 292 295 297 297 297 296 294 294 293 293 294 295 298 300 301 300 299 301 303 306 306 305 304 306 309 311 312 312 313 313 312 312 314 316 319 321 321 321 321 319 317 316 315 313 311 310 309 308 306 306 306 307 306 303 300
259 255 256 265 266 260 265 274 276 275 274 273 271 271 272 273 272 271 270 268 267 267 269 273 276 280 283 287 292 295 297 298 298 297 297 296 295 294 293 292 292 294 297 299 301 300 301 303 306 308 307 305 304 308 310 311 311 311 312 313 313 314 316 318 320 322 324 326 326 324 321 320 318 315 313 310 309 307 305 303 302 303 304 303 302
260 265 269 269 260 260 272 281 282 281 278 277 276 275 273 266 264 267 269 269 269 271 274 276 278 282 286 291 295 298 299 299 299 297 295 293 292 293 293 292 292 294 298 301 301 302 304 307 308 309 308 305 305 308 309 309 310 312 313 314 314 314 315 317 320 323 324 324 323 322 320 321 320 318 315 313 311 309 306 303 300 300 301 300 300
257 266 269 266 260 263 277 286 288 288 284 280 280 279 275 263 256 258 263 268 272 274 276 278 282 287 290 294 297 297 298 299 298 296 293 291 291 292 292 292 293 295 299 301 302 303 305 307 308 308 306 302 303 307 307 307 310 312 313 313 313 313 313 316 320 322 322 321 320 318 317 319 321 320 319 318 315 312 307 303 300 299 299 298 296
249 260 263 263 265 267 275 284 288 291 290 285 281 278 271 258 248 248 253 259 265 268 273 279 285 290 293 295 295 295 297 296 295 292 289 289 290 290 291 292 294 296 298 300 302 303 304 304 305 306 303 300 302 306 306 307 310 311 311 311 311 312 312 314 319 322 322 322 321 319 317 317 319 319 319 318 315 311 307 304 301 299 299 298 295
244 255 260 262 266 268 274 279 284 289 291 285 278 269 257 244 241 245 249 252 258 265 273 282 288 292 294 292 291 293 294 290 289 287 285 287 288 289 291 292 292 293 296 299 301 302 301 301 303 304 302 299 301 304 305 305 307 308 308 308 309 310 309 310 316 322 325 326 325 322 318 316 315 314 313 312 310 307 304 303 302 300 300 298 295
240 247 252 257 260 264 270 275 281 287 287 279 269 256 243 237 238 245 252 258 263 269 277 283 288 291 293 291 286 284 282 280 283 285 283 283 286 289 290 290 288 289 291 295 299 300 298 298 300 301 299 298 299 302 302 302 304 305 305 306 306 307 306 305 310 318 324 326 325 323 321 318 314 312 310 308 305 303 301 301 301 300 299 298 296
245 243 243 248 254 261 267 272 279 285 282 271 261 252 245 244 247 254 263 268 273 278 283 286 289 292 291 286 282 280 277 277 284 288 284 280 280 284 287 287 285 286 288 291 293 293 291 293 296 296 295 295 296 298 300 301 304 305 304 305 305 306 304 302 304 311 317 322 324 324 323 321 318 314 311 307 302 298 297 298 299 299 298 297 295
248 245 243 248 256 258 261 268 278 283 277 266 258 255 254 255 260 266 271 277 283 288 290 291 293 291 284 283 287 289 286 283 283 283 282 280 277 277 279 282 283 282 284 286 286 287 287 289 292 292 293 294 292 293 297 300 303 304 304 304 306 306 305 303 302 304 309 316 321 322 322 321 319 316 313 308 301 296 294 295 296 297 296 295 294
247 250 250 252 252 251 256 266 273 275 271 265 260 259 261 263 267 272 278 285 290 292 291 290 288 285 285 294 304 303 296 292 286 279 278 279 277 276 277 280 281 279 280 284 284 286 288 288 288 289 291 292 289 289 293 295 299 302 303 304 305 305 305 304 302 302 303 308 316 318 319 320 319 316 313 309 302 295 292 292 293 294 294 294 293
246 252 252 247 245 247 254 261 261 262 266 267 264 262 263 265 270 277 283 289 291 290 288 285 285 287 296 311 318 313 307 304 297 289 284 281 279 281 283 282 280 278 281 284 285 286 288 286 286 287 290 290 287 286 289 292 296 300 302 304 304 304 304 303 302 301 301 305 312 316 317 318 318 316 313 309 301 294 290 289 291 293 295 294 293
248 253 249 242 241 245 251 252 250 252 261 266 264 263 263 265 271 278 285 290 290 289 287 288 290 296 306 317 320 314 308 303 298 297 298 293 289 289 288 284 282 282 283 282 282 285 285 283 284 286 288 288 286 285 287 292 296 300 303 304 304 304 303 303 302 300 301 306 312 314 316 318 318 316 313 308 301 295 290 287 289 293 295 294 292
255 260 252 243 241 245 248 247 248 251 258 265 266 265 265 267 271 278 286 291 291 291 293 294 297 302 309 316 318 313 305 297 292 295 302 305 303 299 291 287 287 289 287 283 282 283 283 281 281 283 285 287 286 284 287 292 295 299 302 303 303 302 301 300 299 300 304 309 312 314 316 318 317 315 313 309 303 298 293 288 288 291 294 294 292
258 261 256 246 244 247 249 253 259 262 264 268 268 267 269 270 271 276 284 291 295 297 297 296 299 304 309 314 316 315 310 302 297 299 303 303 305 305 302 299 297 295 292 289 286 284 282 281 279 281 285 285 284 284 288 291 293 296 300 301 300 300 298 298 298 302 307 310 312 315 317 317 316 314 313 311 306 299 293 289 288 290 292 293 293
254 257 257 252 250 254 258 263 269 272 275 277 274 276 278 276 275 278 284 291 298 301 298 297 300 304 308 311 312 316 318 314 311 312 307 301 302 308 309 307 304 299 295 293 291 286 282 279 277 282 287 284 281 285 289 291 293 294 297 298 298 297 296 295 298 303 307 310 312 315 316 317 316 313 312 311 307 300 295 291 290 290 291 293 294
253 260 263 258 256 260 264 266 269 273 278 280 280 284 288 287 287 289 292 297 301 301 298 299 302 304 306 308 310 315 318 317 316 315 308 301 306 312 310 306 304 301 298 296 294 288 283 281 278 283 288 283 282 287 291 291 292 292 293 295 296 295 293 294 299 303 307 309 312 315 317 317 314 311 310 308 304 300 295 291 290 289 290 292 294
257 265 266 261 260 262 263 265 269 272 276 277 280 286 290 291 294 296 297 300 301 299 298 299 301 303 304 307 311 315 314 314 315 314 308 305 309 313 311 307 306 305 302 298 293 288 287 286 282 282 285 284 285 290 292 291 291 290 291 293 294 293 292 295 301 304 306 309 312 316 317 313 309 309 308 304 303 302 298 294 292 290 290 293 296
260 263 260 256 258 262 263 264 267 270 272 275 279 285 288 291 295 297 298 300 300 298 297 297 300 302 303 306 310 312 312 313 314 312 309 307 307 310 310 307 308 309 305 299 293 288 288 289 285 284 286 287 290 292 293 292 291 290 290 291 291 290 291 296 301 304 306 309 313 315 312 308 308 309 307 303 303 304 302 301 299 294 292 295 297
257 256 251 252 257 260 260 261 262 264 268 273 278 282 284 289 294 297 298 298 298 297 296 297 299 302 304 306 309 311 312 312 309 306 306 304 303 306 307 306 307 307 303 299 290 280 282 287 287 287 290 291 293 294 294 293 292 290 289 290 289 287 289 295 301 303 306 310 313 310 306 306 309 309 306 305 305 304 302 301 300 297 295 297 299
246 243 242 247 251 253 254 255 258 263 270 274 276 277 281 287 293 296 297 297 296 295 295 297 300 303 306 307 310 311 310 307 304 304 305 301 299 303 305 304 303 303 301 295 281 269 274 283 285 288 292 294 295 296 296 295 292 290 288 288 287 286 288 295 299 301 305 309 310 306 305 307 307 305 306 308 307 306 305 303 300 299 298 299 300
235 232 235 241 245 249 252 256 262 269 274 274 274 277 282 287 292 296 297 296 295 294 295 298 301 304 306 307 310 309 306 304 304 305 304 299 297 302 305 302 300 300 298 289 275 268 271 276 280 287 294 297 299 299 298 295 292 289 288 287 286 287 291 296 300 302 305 308 307 305 306 306 303 304 308 308 308 308 305 301 298 298 298 300 300
234 234 238 244 248 250 255 262 269 272 272 271 275 281 284 287 292 296 297 296 294 294 297 301 303 304 305 306 307 307 305 304 303 301 300 298 297 301 305 303 298 297 293 283 274 270 267 269 276 285 293 299 301 302 299 296 292 289 288 287 287 289 293 297 301 303 305 307 306 306 307 305 303 306 308 308 308 308 302 296 296 296 298 300 300
238 243 247 249 251 253 259 266 269 268 268 271 276 280 283 287 292 296 298 297 295 295 298 301 302 303 304 305 306 306 304 302 302 301 300 300 300 301 305 303 298 295 290 280 273 268 263 265 274 286 295 300 302 302 300 297 292 288 286 286 286 291 296 299 302 304 305 305 305 305 307 305 305 307 307 307 307 306 302 299 298 299 301 302 302
244 248 250 251 253 257 261 264 263 264 269 274 277 280 284 288 292 294 297 297 295 295 298 299 300 301 302 302 304 305 302 299 300 301 301 301 301 301 304 304 297 289 282 275 271 265 260 262 273 288 296 301 303 303 300 296 291 287 285 285 288 293 298 301 303 304 304 303 304 305 306 305 305 305 305 306 306 304 302 301 300 301 304 305 304
247 249 250 251 255 257 259 259 260 265 271 275 279 283 287 290 293 294 295 296 295 296 298 299 299 299 299 301 303 303 299 297 299 301 302 302 301 301 305 304 294 281 275 273 273 268 260 262 273 288 296 300 303 303 299 294 291 288 287 287 290 296 300 302 302 303 302 302 304 304 305 304 304 304 305 305 304 301 300 299 299 302 305 306 306
251 251 251 252 254 255 256 259 263 270 275 279 284 288 290 291 292 292 293 294 294 296 298 299 298 296 297 300 301 299 295 294 297 299 301 301 300 301 304 303 291 279 275 274 272 266 262 265 271 282 293 297 300 301 298 293 291 289 288 290 295 299 301 302 302 302 302 302 303 303 303 303 303 304 304 303 301 299 297 297 298 300 302 305 307
248 248 250 252 254 255 258 262 267 272 277 281 285 287 288 289 289 290 292 292 293 295 298 297 294 293 295 297 296 293 292 293 296 297 298 299 298 300 301 299 291 282 278 277 273 269 271 273 272 278 289 294 298 300 295 288 288 289 291 296 300 301 302 301 301 301 301 301 301 301 302 302 303 303 303 301 298 296 296 297 298 299 300 303 306
241 246 252 256 258 261 264 267 270 273 277 280 281 283 287 290 291 291 292 292 293 295 297 294 291 290 292 292 289 288 289 292 294 295 296 297 296 297 297 295 293 288 282 281 280 278 279 277 273 276 286 291 296 297 289 284 289 294 297 300 301 301 301 300 301 301 300 300 300 300 301 302 302 302 301 298 296 296 297 299 300 298 298 302 305
245 252 259 262 264 267 270 271 272 274 276 280 284 286 289 292 293 293 293 294 294 294 294 292 290 289 287 285 284 286 287 290 292 293 295 295 293 293 295 295 294 290 284 281 281 280 280 276 271 275 283 290 293 290 286 291 297 299 300 301 300 299 300 299 299 299 299 299 300 300 301 302 301 300 299 297 296 297 299 300 299 297 298 301 304
255 260 262 265 267 269 270 272 274 276 280 285 289 291 291 291 292 292 292 292 292 291 290 290 287 284 282 281 282 284 286 288 290 291 293 293 291 293 295 292 289 288 286 285 283 279 277 274 272 276 284 289 289 290 294 299 301 300 300 300 298 298 298 298 299 299 299 299 300 301 301 300 299 299 297 295 296 298 299 299 299 298 299 301 302
259 260 261 263 266 268 270 274 279 283 286 289 291 293 292 290 290 291 290 289 289 287 284 283 281 280 279 280 282 283 284 286 286 287 289 289 290 292 292 290 290 291 291 292 290 284 281 280 278 281 287 290 292 296 300 301 300 300 299 297 296 297 299 299 300 299 299 299 300 300 300 299 298 297 295 294 296 297 298 298 299 299 300 301 301
257 260 263 265 267 270 274 278 283 287 290 291 292 292 291 289 288 287 286 285 284 280 277 278 278 279 280 282 282 282 282 283 284 286 287 287 289 291 290 292 295 294 293 294 291 287 286 285 284 286 291 293 296 299 300 300 300 298 295 294 296 299 300 300 299 299 299 300 300 300 299 297 296 295 294 294 297 298 298 298 299 300 301 301 301
258 261 265 267 269 272 277 283 286 287 288 288 289 291 292 291 287 284 283 281 279 277 278 279 280 281 282 282 281 281 282 284 286 288 287 288 289 289 290 295 297 294 291 291 288 285 284 285 286 289 293 295 298 299 299 299 297 293 292 295 298 300 300 300 299 299 300 300 300 299 297 295 294 294 294 296 297 298 298 299 300 302 302 301 301
260 265 267 269 272 276 279 282 284 285 284 284 285 288 291 292 289 285 282 280 278 279 281 281 281 281 281 281 282 284 285 285 285 285 286 287 287 287 290 295 296 291 287 285 284 284 285 287 289 292 293 295 297 298 297 294 290 288 291 296 299 300 301 300 300 300 301 301 299 297 295 294 294 294 295 297 298 298 299 300 301 302 301 301 300
266 269 270 272 274 277 278 279 281 282 282 282 282 284 286 287 286 283 280 278 278 279 280 280 281 281 280 281 285 289 288 284 281 282 285 287 287 288 291 294 293 288 284 282 283 285 288 289 290 291 292 294 295 294 292 289 286 288 293 297 299 301 301 301 301 302 302 300 297 296 295 294 295 295 296 298 298 299 300 301 301 301 301 300 299
Height
5922 5923 5923 5924 5924 5925 5926 5927 5928 5928 5929 5929 5930 5930 5930 5931 5931 5931 5931 5931 5931 5932 5932 5931 5931 5931 5931 5931 5931 5931 5931 5931 5931 5930 5930 5930 5930 5930 5929 5929 5929 5928 5928 5928 5927 5926 5926 5925 5925 5924 5923 5922 5921 5920 5919 5918 5918 5917 5916 5915 5914 5913 5912 5911 5910 5908 5907 5907 5906 5905 5903 5902 5901 5899 5898 5897 5895 5894 5893 5891 5890 5889 5888 5887 5886
5922 5922 5922 5923 5923 5924 5925 5926 5927 5928 5928 5928 5929 5929 5930 5930 5930 5930 5930 5931 5931 5931 5931 5931 5931 5931 5931 5931 5931 5931 5930 5930 5930 5930 5929 5929 5929 5929 5929 5928 5928 5928 5927 5926 5926 5925 5925 5924 5924 5923 5922 5921 5920 5919 5918 5917 5916 5915 5914 5913 5912 5912 5911 5910 5908 5907 5906 5905 5904 5903 5902 5900 5899 5898 5896 5895 5893 5892 5891 5890 5888 5887 5886 5885 5884
5921 5921 5922 5922 5923 5923 5924 5925 5926 5926 5927 5927 5927 5928 5928 5929 5929 5930 5930 5930 5930 5930 5930 5930 5930 5930 5930 5930 5930 5930 5930 5929 5929 5929 5928 5928 5928 5928 5928 5927 5927 5927 5926 5925 5925 5924 5924 5923 5922 5921 5920 5919 5918 5917 5916 5915 5914 5913 5912 5911 5911 5910 5909 5908 5907 5906 5905 5903 5902 5901 5900 5899 5897 5896 5895 5893 5892 5890 5889 5888 5887 5886 5884 5883 5882
5921 5921 5921 5921 5922 5922 5923 5924 5924 5925 5925 5926 5926 5927 5927 5928 5928 5929 5929 5929 5929 5929 5929 5929 5930 5930 5930 5929 5929 5929 5929 5928 5928 5928 5927 5927 5927 5927 5926 5926 5926 5925 5925 5924 5923 5923 5922 5921 5920 5920 5919 5917 5916 5915 5914 5913 5912 5911 5910 5909 5909 5908 5907 5906 5905 5905 5903 5902 5900 5899 5898 5896 5895 5894 5893 5892 5890 5889 5887 5886 5885 5884 5883 5881 5880
5921 5921 5921 5921 5921 5921 5922 5922 5923 5923 5924 5924 5925 5925 5926 5926 5927 5928 5928 5928 5928 5928 5928 5928 5929 5929 5929 5928 5928 5928 5927 5927 5927 5926 5926 5926 5926 5925 5925 5925 5924 5924 5923 5922 5922 5921 5920 5919 5919 5918 5916 5915 5914 5913 5912 5911 5910 5909 5908 5908 5907 5906 5905 5904 5903 5903 5902 5900 5899 5897 5896 5894 5892 5891 5890 5890 5889 5887 5886 5885 5883 5882 5881 5879 5878
5920 5920 5919 5919 5920 5920 5921 5921 5922 5922 5922 5923 5923 5924 5924 5925 5926 5926 5927 5927 5927 5927 5927 5928 5928 5928 5927 5927 5927 5927 5926 5926 5925 5925 5925 5925 5925 5924 5924 5923 5922 5922 5921 5920 5920 5919 5918 5917 5916 5915 5914 5913 5912 5911 5910 5909 5908 5907 5906 5906 5905 5904 5903 5902 5901 5901 5900 5899 5897 5896 5894 5892 5890 5889 5887 5887 5886 5885 5884 5882 5881 5880 5878 5877 5876
5919 5918 5918 5918 5918 5919 5920 5920 5921 5921 5921 5922 5922 5923 5923 5924 5924 5925 5925 5926 5926 5926 5926 5926 5926 5926 5926 5926 5925 5925 5925 5925 5925 5924 5924 5924 5923 5923 5922 5921 5920 5920 5919 5918 5917 5916 5916 5915 5914 5913 5912 5910 5909 5908 5908 5907 5906 5905 5905 5904 5903 5902 5901 5900 5899 5898 5898 5897 5895 5894 5892 5891 5889 5887 5885 5883 5883 5882 5881 5880 5879 5877 5875 5874 5873
5917 5917 5917 5917 5917 5918 5918 5919 5920 5920 5920 5921 5921 5922 5922 5922 5923 5923 5924 5924 5925 5925 5925 5925 5925 5925 5924 5924 5924 5923 5923 5923 5923 5922 5922 5921 5921 5920 5919 5919 5918 5917 5916 5915 5915 5914 5913 5912 5911 5910 5909 5908 5907 5907 5906 5905 5905 5904 5903 5902 5901 5900 5899 5898 5897 5896 5895 5894 5893 5892 5890 5888 5887 5885 5883 5881 5879 5878 5878 5877 5876 5875 5873 5871 5870
5916 5916 5916 5916 5916 5917 5917 5918 5918 5919 5919 5919 5920 5920 5921 5921 5921 5922 5922 5922 5923 5923 5923 5923 5923 5923 5922 5922 5922 5921 5921 5920 5920 5919 5919 5918 5918 5917 5917 5916 5915 5914 5914 5913 5912 5912 5911 5910 5909 5908 5908 5907 5906 5905 5905 5904 5903 5902 5901 5900 5899 5898 5897 5896 5895 5894 5893 5891 5890 5889 5888 5886 5884 5883 5881 5880 5878 5876 5874 5873 5872 5872 5871 5869 5867
5915 5915 5915 5915 5915 5916 5916 5917 5917 5917 5917 5918 5919 5919 5919 5920 5920 5920 5920 5921 5921 5921 5921 5921 5921 5921 5920 5920 5919 5919 5919 5918 5918 5917 5917 5916 5915 5915 5914 5914 5913 5912 5912 5911 5910 5910 5909 5908 5907 5907 5906 5905 5904 5904 5903 5902 5901 5900 5898 5897 5896 5895 5894 5893 5892 5891 5890 5889 5887 5886 5885 5884 5882 5881 5879 5878 5876 5874 5872 5870 5868 5867 5866 5866 5865
5914 5914 5914 5914 5914 5915 5915 5915 5915 5915 5916 5916 5917 5917 5918 5918 5918 5918 5919 5919 5919 5919 5919 5919 5919 5918 5918 5918 5917 5917 5916 5916 5916 5915 5915 5914 5914 5913 5912 5912 5911 5910 5910 5909 5909 5908 5907 5906 5906 5905 5904 5903 5902 5902 5901 5900 5898 5897 5896 5895 5894 5893 5891 5890 5889 5888 5887 5886 5885 5884 5883 5881 5880 5878 5877 5875 5874 5872 5870 5868 5866 5864 5862 5862 5861
5912 5912 5913 5913 5913 5913 5914 5914 5914 5914 5915 5915 5915 5915 5916 5916 5916 5916 5917 5917 5917 5917 5917 5917 5916 5916 5916 5915 5915 5914 5914 5914 5914 5913 5913 5912 5912 5911 5910 5910 5909 5909 5908 5907 5907 5906 5905 5905 5904 5903 5902 5901 5900 5899 5898 5897 5896 5895 5893 5893 5891 5890 5889 5887 5886 5885 5884 5883 5882 5881 5880 5878 5877 5875 5874 5872 5871 5869 5867 5865 5864 5862 5860 5858 5857
5911 5911 5911 5911 5912 5912 5912 5912 5913 5913 5913 5913 5913 5913 5914 5914 5914 5914 5914 5914 5914 5914 5914 5914 5914 5914 5914 5913 5913 5913 5912 5912 5912 5911 5911 5910 5909 5909 5908 5907 5907 5906 5906 5905 5904 5904 5903 5902 5901 5900 5899 5898 5897 5897 5896 5894 5893 5892 5891 5890 5889 5887 5886 5885 5884 5882 5881 5880 5879 5878 5876 5875 5874 5872 5871 5869 5868 5866 5865 5863 5861 5859 5857 5856 5854
5909 5909 5910 5910 5910 5910 5910 5911 5911 5911 5911 5911 5911 5911 5911 5912 5912 5912 5912 5912 5912 5911 5912 5912 5912 5912 5911 5911 5911 5911 5910 5910 5909 5909 5908 5907 5907 5906 5906 5905 5904 5903 5903 5902 5902 5901 5900 5900 5899 5898 5897 5896 5895 5894 5893 5892 5891 5890 5889 5887 5886 5884 5883 5882 5880 5879 5878 5877 5876 5874 5873 5872 5870 5869 5867 5866 5865 5863 5861 5860 5858 5856 5855 5853 5851
5907 5907 5908 5908 5908 5908 5908 5908 5909 5909 5909 5908 5909 5909 5909 5909 5910 5910 5910 5909 5909 5909 5909 5909 5909 5909 5909 5909 5909 5908 5908 5907 5906 5906 5905 5905 5904 5904 5903 5902 5901 5900 5900 5899 5899 5898 5897 5897 5896 5895 5894 5893 5892 5891 5890 5889 5888 5887 5886 5885 5883 5882 5880 5879 5877 5876 5875 5873 5872 5871 5869 5868 5867 5865 5864 5863 5861 5860 5858 5856 5854 5853 5852 5850 5848
5905 5905 5906 5906 5906 5906 5906 5906 5906 5906 5906 5906 5906 5906 5907 5907 5907 5907 5907 5907 5907 5907 5906 5906 5906 5906 5907 5907 5906 5906 5905 5905 5904 5903 5903 5902 5902 5901 5901 5900 5899 5898 5897 5897 5896 5895 5894 5894 5893 5892 5891 5890 5890 5889 5888 5887 5886 5885 5883 5882 5880 5879 5877 5876 5874 5873 5871 5870 5868 5867 5865 5864 5863 5861 5860 5859 5857 5856 5854 5852 5851 5849 5848 5847 5845
5903 5903 5903 5904 5904 5904 5904 5905 5904 5904 5905 5905 5905 5904 5904 5905 5905 5905 5905 5905 5905 5904 5904 5904 5904 5904 5904 5904 5904 5903 5902 5902 5901 5901 5901 5900 5899 5899 5898 5897 5896 5895 5895 5894 5894 5893 5892 5891 5890 5890 5889 5888 5887 5886 5885 5884 5883 5882 5881 5879 5878 5876 5874 5873 5871 5869 5868 5866 5864 5862 5861 5860 5859 5857 5855 5854 5853 5851 5850 5848 5847 5845 5844 5843 5842
5900 5901 5901 5901 5902 5903 5903 5903 5903 5903 5903 5902 5903 5903 5903 5903 5902 5902 5902 5902 5902 5902 5902 5902 5902 5902 5902 5902 5901 5900 5900 5899 5899 5898 5898 5897 5896 5896 5895 5894 5893 5893 5892 5892 5891 5890 5889 5888 5888 5887 5886 5885 5884 5883 5881 5881 5880 5879 5878 5876 5874 5873 5871 5870 5868 5866 5864 5862 5860 5859 5857 5856 5855 5853 5851 5850 5848 5847 5845 5844 5843 5841 5840 5839 5838
5898 5899 5899 5899 5900 5900 5901 5901 5901 5901 5901 5900 5900 5900 5900 5900 5900 5900 5900 5900 5900 5899 5900 5899 5899 5900 5899 5899 5898 5898 5897 5896 5896 5895 5895 5894 5893 5892 5892 5891 5891 5891 5890 5889 5888 5887 5886 5885 5885 5884 5883 5881 5880 5879 5878 5877 5876 5875 5874 5873 5871 5870 5868 5867 5865 5863 5861 5858 5857 5855 5854 5853 5852 5849 5847 5846 5844 5843 5841 5840 5838 5837 5836 5835 5833
5897 5897 5897 5897 5898 5898 5898 5899 5898 5899 5898 5898 5898 5898 5898 5898 5898 5898 5898 5897 5897 5897 5897 5897 5897 5897 5896 5896 5895 5895 5894 5893 5893 5892 5891 5890 5889 5889 5888 5888 5888 5888 5888 5887 5885 5884 5883 5881 5881 5881 5879 5878 5877 5876 5875 5874 5873 5872 5871 5870 5868 5867 5865 5864 5862 5860 5858 5855 5853 5852 5851 5850 5848 5846 5844 5842 5841 5839 5837 5836 5834 5833 5832 5831 5829
5895 5895 5895 5895 5896 5896 5896 5896 5896 5896 5896 5896 5896 5895 5895 5895 5895 5895 5895 5895 5895 5895 5895 5895 5894 5894 5893 5892 5892 5891 5891 5890 5889 5888 5888 5887 5886 5885 5885 5885 5884 5884 5884 5883 5882 5881 5879 5878 5878 5877 5876 5875 5874 5873 5872 5871 5870 5869 5868 5867 5865 5864 5862 5860 5859 5857 5855 5852 5850 5848 5847 5846 5845 5843 5841 5839 5837 5836 5834 5832 5830 5829 5828 5827 5826
5893 5893 5894 5894 5893 5894 5894 5893 5893 5894 5894 5894 5894 5893 5893 5893 5893 5893 5893 5893 5893 5893 5892 5892 5892 5891 5890 5889 5888 5888 5887 5886 5885 5884 5884 5883 5883 5882 5882 5881 5880 5880 5880 5879 5878 5877 5876 5875 5874 5874 5872 5871 5871 5870 5869 5868 5867 5866 5865 5864 5862 5860 5859 5857 5855 5854 5852 5849 5847 5845 5844 5843 5841 5839 5837 5835 5833 5832 5830 5828 5826 5825 5824 5822 5821
5891 5891 5891 5891 5891 5891 5891 5891 5891 5891 5891 5891 5891 5891 5891 5890 5890 5890 5890 5890 5890 5890 5890 5890 5889 5888 5886 5885 5884 5883 5883 5882 5882 5881 5881 5880 5879 5879 5878 5878 5877 5876 5876 5875 5874 5873 5872 5871 5871 5870 5869 5868 5867 5866 5865 5865 5864 5863 5862 5860 5859 5857 5855 5853 5852 5850 5848 5846 5844 5842 5840 5839 5837 5835 5833 5831 5829 5828 5826 5824 5822 5821 5819 5817 5816
5888 5888 5889 5889 5889 5889 5888 5888 5888 5889 5889 5888 5888 5888 5888 5888 5888 5888 5888 5887 5888 5888 5887 5887 5886 5884 5882 5879 5877 5878 5880 5881 5881 5880 5878 5877 5876 5876 5875 5874 5873 5872 5872 5872 5871 5869 5868 5868 5868 5867 5866 5865 5864 5863 5862 5861 5860 5859 5858 5856 5854 5853 5851 5849 5848 5846 5844 5843 5840 5838 5836 5835 5833 5831 5829 5827 5825 5823 5821 5820 5818 5816 5814 5812 5811
5885 5885 5886 5886 5886 5886 5886 5886 5886 5886 5886 5885 5885 5885 5885 5885 5885 5885 5885 5885 5885 5885 5884 5883 5881 5880 5878 5874 5874 5878 5880 5881 5880 5877 5874 5872 5871 5871 5871 5869 5869 5868 5868 5868 5867 5865 5865 5864 5864 5863 5862 5861 5860 5859 5858 5857 5856 5855 5853 5852 5850 5848 5847 5845 5843 5842 5840 5838 5836 5834 5832 5830 5828 5826 5824 5822 5820 5818 5817 5815 5813 5811 5809 5808 5806
5882 5882 5883 5883 5884 5883 5883 5883 5883 5883 5883 5882 5882 5882 5882 5882 5882 5882 5882 5882 5882 5881 5880 5879 5877 5875 5874 5874 5875 5877 5876 5876 5874 5870 5868 5867 5866 5866 5865 5865 5865 5865 5864 5864 5862 5861 5861 5861 5860 5859 5858 5857 5857 5856 5854 5853 5852 5850 5849 5848 5846 5845 5843 5841 5839 5837 5836 5834 5832 5830 5828 5826 5824 5822 5819 5817 5815 5813 5811 5810 5808 5806 5804 5802 5800
5879 5879 5880 5880 5881 5881 5881 5881 5881 5881 5880 5880 5880 5880 5880 5880 5879 5879 5879 5879 5879 5878 5876 5875 5873 5872 5874 5875 5874 5872 5870 5869 5866 5863 5863 5864 5863 5862 5862 5861 5861 5860 5860 5859 5858 5857 5857 5856 5855 5855 5854 5853 5852 5851 5850 5848 5847 5846 5845 5844 5842 5841 5839 5837 5835 5833 5832 5830 5828 5826 5823 5821 5819 5817 5815 5812 5810 5808 5806 5805 5803 5801 5799 5796 5794
5876 5877 5877 5877 5878 5878 5878 5879 5879 5878 5878 5878 5877 5877 5877 5877 5877 5877 5876 5876 5875 5874 5873 5872 5871 5872 5873 5872 5870 5867 5864 5863 5861 5860 5861 5861 5860 5859 5858 5857 5856 5856 5855 5855 5854 5853 5852 5851 5851 5850 5849 5849 5848 5846 5845 5844 5843 5841 5840 5839 5838 5836 5835 5833 5831 5829 5827 5826 5824 5821 5819 5816 5814 5812 5810 5807 5805 5803 5801 5799 5797 5795 5792 5790 5787
5873 5874 5874 5874 5875 5875 5876 5876 5876 5876 5876 5875 5875 5875 5875 5875 5874 5874 5873 5873 5872 5872 5871 5870 5870 5869 5869 5868 5866 5862 5856 5856 5858 5859 5859 5858 5857 5855 5854 5853 5852 5851 5850 5849 5849 5848 5847 5846 5846 5845 5845 5844 5843 5842 5841 5840 5838 5837 5836 5834 5833 5832 5830 5828 5827 5825 5823 5821 5818 5816 5813 5811 5809 5807 5804 5801 5799 5798 5796 5793 5791 5788 5786 5783 5781
5870 5871 5871 5872 5872 5872 5873 5873 5873 5873 5873 5873 5873 5872 5872 5872 5872 5871 5871 5870 5870 5870 5869 5868 5867 5867 5865 5864 5863 5858 5853 5853 5856 5857 5855 5854 5853 5852 5850 5849 5848 5847 5845 5844 5844 5843 5842 5841 5841 5841 5840 5839 5838 5837 5836 5835 5834 5833 5831 5830 5829 5827 5826 5824 5822 5820 5818 5816 5813 5810 5808 5806 5804 5801 5798 5796 5794 5792 5790 5787 5785 5782 5779 5777 5775
5867 5868 5868 5869 5869 5869 5870 5870 5870 5870 5870 5870 5870 5870 5870 5869 5869 5869 5868 5868 5868 5868 5867 5866 5865 5864 5862 5860 5858 5855 5853 5853 5854 5854 5852 5851 5850 5848 5846 5844 5843 5842 5840 5840 5839 5838 5838 5837 5837 5837 5836 5835 5834 5833 5832 5831 5829 5828 5827 5826 5825 5823 5821 5819 5817 5815 5813 5810 5807 5805 5803 5801 5798 5795 5793 5791 5788 5786 5784 5782 5779 5776 5774 5772 5770
5864 5865 5865 5865 5865 5866 5866 5867 5867 5866 5866 5866 5866 5866 5866 5866 5866 5866 5865 5865 5865 5865 5864 5863 5862 5861 5859 5856 5854 5853 5851 5849 5849 5849 5849 5848 5846 5845 5842 5840 5839 5837 5835 5835 5834 5833 5833 5833 5833 5832 5832 5831 5830 5829 5827 5825 5824 5823 5822 5821 5821 5819 5816 5814 5812 5810 5807 5804 5802 5800 5798 5796 5793 5790 5787 5785 5782 5780 5778 5775 5773 5770 5768 5766 5764
5861 5861 5862 5861 5862 5863 5863 5863 5863 5863 5862 5862 5862 5862 5862 5862 5862 5862 5862 5862 5862 5861 5861 5860 5858 5857 5855 5853 5851 5849 5846 5844 5844 5844 5844 5843 5842 5840 5838 5836 5834 5832 5831 5830 5829 5829 5829 5828 5828 5828 5827 5826 5825 5824 5822 5820 5819 5818 5817 5816 5816 5814 5811 5809 5806 5804 5802 5799 5796 5794 5792 5790 5787 5784 5781 5779 5776 5774 5771 5769 5766 5764 5762 5760 5759
5857 5858 5858 5857 5858 5859 5859 5859 5859 5858 5858 5858 5858 5858 5858 5858 5858 5858 5858 5858 5858 5857 5857 5856 5855 5853 5851 5849 5847 5845 5842 5841 5840 5839 5839 5838 5837 5835 5833 5831 5829 5827 5826 5825 5824 5824 5824 5823 5823 5822 5822 5822 5821 5819 5817 5816 5815 5813 5812 5811 5810 5808 5806 5804 5801 5799 5796 5793 5791 5789 5787 5784 5782 5778 5775 5772 5771 5768 5765 5762 5760 5758 5756 5754 5753
5853 5854 5854 5853 5854 5854 5854 5853 5853 5853 5853 5854 5854 5854 5854 5854 5854 5854 5854 5854 5854 5853 5852 5851 5850 5849 5847 5845 5843 5840 5838 5836 5836 5835 5835 5834 5832 5831 5829 5826 5825 5823 5821 5820 5819 5819 5820 5819 5818 5818 5817 5817 5816 5815 5813 5811 5810 5808 5806 5806 5804 5802 5801 5799 5797 5794 5791 5789 5787 5784 5781 5779 5775 5772 5769 5766 5764 5762 5759 5756 5754 5752 5750 5748 5746
5848 5849 5849 5849 5849 5849 5848 5848 5848 5848 5849 5850 5850 5850 5850 5850 5850 5850 5850 5850 5849 5848 5847 5846 5844 5843 5841 5839 5838 5836 5832 5831 5831 5830 5830 5829 5827 5826 5824 5822 5820 5818 5816 5815 5815 5815 5815 5815 5814 5814 5813 5812 5811 5810 5808 5806 5804 5803 5801 5800 5799 5797 5796 5794 5791 5788 5786 5784 5781 5777 5775 5773 5769 5765 5763 5760 5758 5756 5753 5750 5748 5745 5744 5742 5739
5843 5843 5843 5843 5843 5843 5842 5842 5842 5844 5845 5846 5846 5846 5846 5846 5846 5846 5845 5845 5844 5843 5842 5841 5839 5838 5836 5834 5832 5830 5827 5826 5826 5825 5824 5823 5821 5821 5820 5818 5816 5813 5811 5810 5810 5810 5811 5811 5810 5810 5809 5808 5806 5805 5803 5801 5799 5797 5795 5794 5793 5792 5790 5788 5785 5782 5781 5779 5775 5771 5768 5766 5762 5759 5757 5754 5751 5750 5748 5745 5742 5740 5738 5736 5733
5837 5837 5838 5838 5838 5837 5837 5838 5839 5840 5841 5841 5842 5842 5842 5842 5842 5841 5841 5840 5839 5838 5837 5836 5834 5832 5830 5828 5827 5824 5821 5821 5821 5819 5817 5817 5816 5815 5814 5812 5810 5808 5806 5805 5805 5806 5806 5806 5806 5805 5804 5803 5801 5799 5797 5795 5793 5791 5790 5789 5788 5787 5785 5782 5779 5777 5774 5772 5769 5765 5762 5760 5756 5754 5751 5748 5745 5744 5742 5739 5737 5735 5733 5730 5727
5832 5832 5833 5833 5833 5833 5833 5834 5835 5836 5836 5837 5837 5838 5838 5838 5837 5837 5836 5835 5833 5832 5831 5830 5828 5826 5824 5822 5821 5818 5815 5814 5814 5813 5812 5812 5810 5809 5808 5806 5803 5801 5800 5800 5800 5801 5801 5801 5800 5799 5798 5797 5795 5793 5791 5789 5787 5786 5784 5784 5783 5781 5779 5776 5774 5771 5768 5765 5763 5760 5758 5755 5751 5748 5746 5742 5740 5738 5735 5733 5731 5729 5727 5724 5721
5827 5828 5828 5828 5829 5829 5829 5830 5830 5831 5832 5832 5833 5833 5833 5833 5832 5832 5831 5829 5828 5827 5825 5823 5822 5820 5818 5816 5815 5813 5809 5807 5808 5808 5807 5805 5804 5803 5802 5800 5797 5796 5795 5795 5795 5796 5796 5795 5794 5793 5792 5791 5790 5788 5786 5784 5782 5781 5780 5779 5778 5776 5773 5770 5768 5765 5762 5759 5757 5755 5752 5749 5746 5743 5741 5737 5734 5732 5730 5727 5725 5723 5721 5719 5716
5823 5823 5823 5824 5825 5825 5825 5825 5826 5827 5828 5828 5828 5828 5828 5828 5827 5826 5825 5824 5822 5821 5819 5817 5815 5813 5811 5810 5808 5806 5803 5801 5801 5800 5800 5799 5798 5797 5796 5794 5791 5791 5791 5792 5791 5791 5791 5790 5788 5787 5786 5785 5784 5783 5780 5778 5777 5776 5775 5774 5772 5770 5767 5764 5762 5759 5756 5753 5750 5748 5746 5743 5741 5738 5735 5732 5729 5726 5724 5722 5719 5717 5715 5713 5711
5818 5819 5819 5820 5821 5821 5821 5822 5822 5823 5823 5823 5823 5823 5822 5822 5821 5820 5819 5818 5816 5814 5812 5810 5808 5806 5805 5804 5802 5800 5798 5796 5795 5794 5793 5792 5791 5790 5789 5787 5786 5786 5787 5786 5785 5785 5785 5784 5782 5782 5781 5780 5779 5778 5775 5773 5772 5771 5770 5768 5767 5764 5761 5758 5755 5753 5750 5747 5744 5741 5739 5737 5735 5732 5729 5726 5724 5721 5719 5717 5714 5712 5710 5708 5706
5813 5814 5815 5816 5817 5817 5818 5818 5818 5818 5818 5818 5817 5817 5816 5816 5815 5814 5813 5812 5810 5808 5806 5804 5802 5800 5799 5798 5796 5794 5792 5791 5790 5788 5787 5786 5785 5784 5783 5781 5781 5782 5781 5781 5781 5781 5780 5778 5777 5776 5775 5774 5773 5772 5770 5768 5767 5766 5764 5762 5760 5758 5755 5752 5749 5747 5744 5741 5739 5736 5734 5731 5728 5726 5723 5721 5718 5716 5714 5711 5709 5707 5705 5703 5700
5808 5809 5810 5811 5812 5812 5812 5812 5812 5812 5812 5812 5811 5810 5810 5809 5808 5807 5806 5805 5803 5801 5799 5797 5795 5794 5793 5792 5791 5789 5788 5787 5785 5784 5782 5781 5779 5778 5778 5777 5777 5777 5777 5777 5776 5775 5774 5772 5771 5770 5769 5768 5767 5766 5765 5763 5762 5760 5758 5756 5754 5751 5749 5746 5743 5741 5738 5735 5733 5730 5728 5725 5722 5720 5717 5715 5713 5711 5709 5707 5705 5702 5700 5698 5695
5803 5804 5804 5805 5805 5806 5806 5806 5807 5807 5806 5806 5805 5804 5803 5801 5800 5800 5799 5798 5796 5794 5792 5790 5788 5787 5787 5786 5786 5784 5783 5783 5781 5780 5778 5776 5773 5773 5774 5774 5773 5773 5773 5772 5771 5769 5768 5767 5765 5764 5763 5762 5761 5760 5759 5758 5757 5754 5752 5749 5747 5745 5743 5740 5738 5735 5733 5730 5727 5724 5722 5719 5716 5714 5712 5710 5708 5706 5703 5701 5699 5697 5695 5693 5690
5798 5798 5799 5800 5800 5801 5801 5801 5801 5801 5800 5799 5798 5797 5796 5794 5793 5792 5792 5791 5790 5788 5786 5784 5782 5781 5781 5781 5781 5780 5779 5779 5778 5776 5775 5773 5770 5769 5769 5769 5769 5768 5768 5767 5765 5764 5763 5762 5760 5759 5758 5757 5756 5755 5754 5752 5751 5748 5746 5743 5741 5739 5737 5735 5733 5730 5727 5724 5721 5718 5716 5713 5710 5709 5707 5704 5702 5700 5698 5695 5693 5691 5689 5687 5685
5793 5793 5794 5795 5796 5796 5796 5796 5795 5794 5793 5791 5791 5790 5788 5787 5786 5785 5785 5785 5784 5783 5781 5779 5777 5777 5776 5776 5776 5775 5774 5774 5773 5773 5773 5771 5769 5768 5766 5763 5763 5762 5761 5761 5760 5760 5759 5758 5756 5755 5753 5751 5750 5749 5748 5747 5745 5743 5741 5738 5736 5734 5732 5730 5727 5724 5721 5718 5716 5713 5710 5707 5705 5703 5701 5699 5697 5695 5693 5690 5688 5686 5684 5682 5681
5788 5788 5789 5790 5790 5790 5790 5790 5788 5786 5785 5785 5784 5783 5782 5780 5779 5779 5779 5778 5777 5777 5776 5774 5773 5772 5771 5771 5770 5769 5769 5769 5768 5768 5768 5766 5765 5765 5763 5760 5758 5757 5756 5756 5755 5755 5754 5753 5752 5750 5748 5746 5744 5744 5743 5741 5740 5738 5736 5733 5731 5729 5726 5723 5721 5718 5715 5712 5710 5707 5704 5702 5700 5698 5696 5694 5692 5690 5688 5685 5683 5681 5679 5678 5676
5783 5783 5784 5784 5784 5784 5783 5782 5781 5780 5780 5780 5779 5778 5777 5775 5773 5772 5772 5772 5771 5771 5771 5769 5768 5767 5767 5765 5764 5763 5763 5763 5763 5763 5762 5761 5759 5759 5758 5756 5754 5753 5752 5751 5751 5750 5749 5748 5746 5744 5743 5741 5739 5738 5737 5735 5734 5732 5730 5728 5726 5723 5720 5717 5714 5711 5709 5706 5704 5702 5699 5697 5695 5693 5691 5689 5687 5685 5682 5680 5678 5677 5675 5673 5671
5777 5778 5778 5778 5777 5777 5776 5776 5776 5775 5775 5775 5774 5773 5772 5770 5767 5766 5766 5766 5766 5766 5766 5764 5763 5763 5762 5760 5759 5758 5758 5757 5757 5756 5755 5755 5754 5753 5752 5751 5749 5748 5748 5747 5746 5745 5744 5743 5741 5739 5738 5736 5735 5733 5731 5730 5728 5727 5725 5723 5720 5716 5714 5711 5708 5705 5703 5700 5698 5696 5694 5692 5690 5688 5686 5684 5682 5680 5678 5676 5674 5672 5670 5668 5667
5771 5771 5771 5771 5771 5770 5770 5770 5770 5770 5770 5770 5769 5768 5766 5764 5763 5761 5761 5761 5761 5761 5760 5760 5759 5758 5756 5755 5754 5753 5752 5750 5750 5750 5749 5749 5748 5748 5746 5745 5744 5743 5743 5742 5741 5740 5739 5737 5736 5734 5732 5731 5729 5728 5726 5724 5723 5721 5719 5716 5713 5710 5707 5705 5702 5699 5696 5694 5692 5690 5688 5686 5685 5683 5681 5679 5677 5675 5673 5671 5669 5668 5666 5664 5662